| time (UTC) | temp F | wind direction | speed MPH | gust MPH | rain 1hr in | rain 24hr in | rain mn in | humidity % | barometer mb |
| 20260507074523 | 42 | 280 | 15.0 | 20.0 | 0.00 | 0.00 | 0.00 | 84 | 1014.7 |
| 20260507073102 | 42 | 297 | 15.0 | 22.0 | 0.00 | 0.00 | 0.00 | 84 | 1014.4 |
| 20260507071510 | 42 | 312 | 14.0 | 20.0 | 0.00 | 0.00 | 0.00 | 85 | 1014.3 |
| 20260507070003 | 42 | 295 | 14.0 | 18.0 | 0.00 | 0.00 | 0.00 | 86 | 1014.3 |
| 20260507064609 | 42 | 290 | 16.0 | 21.0 | 0.00 | 0.00 | 0.00 | 85 | 1014.1 |
| 20260507063010 | 43 | 285 | 16.0 | 21.0 | 0.00 | 0.00 | 0.00 | 82 | 1014.0 |
| 20260507061601 | 43 | 271 | 16.0 | 21.0 | 0.00 | 0.00 | 0.00 | 81 | 1013.9 |
| 20260507060010 | 43 | 269 | 11.0 | 16.0 | 0.00 | 0.00 | 0.00 | 80 | 1014.0 |
| 20260507054601 | 43 | 214 | 7.0 | 9.0 | 0.00 | 0.00 | 0.00 | 80 | 1013.8 |
| 20260507053011 | 42 | 215 | 7.0 | 8.0 | 0.00 | 0.00 | 0.00 | 80 | 1013.7 |
| 20260507051501 | 43 | 220 | 9.0 | 12.0 | 0.00 | 0.00 | 0.00 | 78 | 1013.6 |
| 20260507050110 | 43 | 216 | 9.0 | 11.0 | 0.00 | 0.00 | 0.00 | 80 | 1013.6 |
| 20260507044609 | 42 | 217 | 9.0 | 12.0 | 0.00 | 0.00 | 0.00 | 82 | 1013.5 |
| 20260507043113 | 42 | 216 | 10.0 | 12.0 | 0.00 | 0.00 | 0.00 | 82 | 1013.4 |
| 20260507041604 | 40 | 215 | 11.0 | 15.0 | 0.00 | 0.00 | 0.00 | 83 | 1013.2 |
| 20260507040105 | 39 | 219 | 11.0 | 15.0 | 0.00 | 0.00 | 0.00 | 85 | 1013.1 |
| 20260507034609 | 38 | 215 | 12.0 | 15.0 | 0.00 | 0.00 | 0.00 | 85 | 1013.1 |
| 20260507033100 | 37 | 208 | 10.0 | 12.0 | 0.00 | 0.00 | 0.00 | 86 | 1013.0 |
| 20260507031610 | 37 | 199 | 10.0 | 15.0 | 0.00 | 0.00 | 0.00 | 85 | 1013.0 |
| 20260507030001 | 38 | 196 | 9.0 | 12.0 | 0.00 | 0.00 | 0.00 | 88 | 1012.8 |
| 20260507024502 | 37 | 199 | 10.0 | 12.0 | 0.00 | 0.00 | 0.00 | 88 | 1012.8 |
| 20260507023101 | 38 | 199 | 9.0 | 14.0 | 0.00 | 0.00 | 0.00 | 88 | 1012.9 |
| 20260507021501 | 38 | 208 | 10.0 | 14.0 | 0.00 | 0.00 | 0.00 | 88 | 1013.0 |
| 20260507020121 | 38 | 216 | 11.0 | 14.0 | 0.00 | 0.00 | 0.00 | 88 | 1012.9 |
| 20260507014504 | 38 | 216 | 12.0 | 16.0 | 0.00 | 0.00 | 0.00 | 88 | 1012.7 |
| 20260507013110 | 38 | 217 | 12.0 | 15.0 | 0.00 | 0.00 | 0.00 | 87 | 1012.7 |
| 20260507011521 | 39 | 214 | 9.0 | 15.0 | 0.00 | 0.00 | 0.00 | 86 | 1012.6 |
| 20260507010008 | 40 | 225 | 14.0 | 19.0 | 0.00 | 0.00 | 0.00 | 86 | 1012.5 |
| 20260507004600 | 40 | 220 | 14.0 | 20.0 | 0.00 | 0.00 | 0.00 | 87 | 1012.3 |
| 20260507001603 | 40 | 234 | 16.0 | 19.0 | 0.00 | 0.00 | 0.00 | 87 | 1012.3 |
| 20260507000110 | 40 | 229 | 15.0 | 18.0 | 0.00 | 0.00 | 0.00 | 87 | 1012.2 |
| 20260506234621 | 40 | 236 | 13.0 | 17.0 | 0.00 | 0.00 | 0.00 | 86 | 1012.2 |
| 20260506233012 | 40 | 229 | 15.0 | 19.0 | 0.00 | 0.00 | 0.00 | 86 | 1012.2 |
| 20260506230103 | 40 | 247 | 17.0 | 20.0 | 0.00 | 0.00 | 0.00 | 86 | 1012.0 |
| 20260506224502 | 40 | 251 | 17.0 | 20.0 | 0.00 | 0.00 | 0.00 | 85 | 1011.9 |
| 20260506223002 | 40 | 239 | 16.0 | 21.0 | 0.00 | 0.00 | 0.00 | 84 | 1011.8 |
| 20260506221612 | 40 | 246 | 18.0 | 22.0 | 0.00 | 0.00 | 0.00 | 84 | 1011.7 |
| 20260506220110 | 40 | 250 | 18.0 | 22.0 | 0.00 | 0.00 | 0.00 | 84 | 1011.5 |
| 20260506214502 | 40 | 255 | 18.0 | 24.0 | 0.00 | 0.00 | 0.00 | 84 | 1011.4 |
| 20260506213001 | 40 | 248 | 18.0 | 23.0 | 0.00 | 0.00 | 0.00 | 84 | 1011.3 |
| 20260506211601 | 40 | 253 | 17.0 | 21.0 | 0.00 | 0.00 | 0.00 | 84 | 1011.4 |
| 20260506210014 | 40 | 248 | 11.0 | 13.0 | 0.00 | 0.00 | 0.00 | 86 | 1011.4 |
| 20260506203008 | 40 | 229 | 16.0 | 18.0 | 0.00 | 0.00 | 0.00 | 85 | 1011.3 |
| 20260506201502 | 41 | 236 | 16.0 | 19.0 | 0.00 | 0.00 | 0.00 | 84 | 1011.4 |
| 20260506194512 | 41 | 235 | 16.0 | 20.0 | 0.00 | 0.00 | 0.00 | 82 | 1011.2 |
| 20260506193103 | 41 | 227 | 14.0 | 17.0 | 0.00 | 0.00 | 0.00 | 83 | 1011.2 |
| 20260506191601 | 41 | 235 | 15.0 | 18.0 | 0.00 | 0.00 | 0.00 | 79 | 1011.1 |
| 20260506190002 | 41 | 242 | 14.0 | 21.0 | 0.00 | 0.00 | 0.00 | 78 | 1011.1 |
| 20260506184511 | 42 | 245 | 17.0 | 20.0 | 0.00 | 0.00 | 0.00 | 77 | 1010.9 |
| 20260506183002 | 42 | 247 | 17.0 | 20.0 | 0.00 | 0.00 | 0.00 | 78 | 1010.7 |
| 20260506181602 | 42 | 245 | 16.0 | 21.0 | 0.00 | 0.00 | 0.00 | 78 | 1010.6 |
| 20260506174501 | 42 | 248 | 17.0 | 20.0 | 0.00 | 0.00 | 0.00 | 80 | 1010.5 |
| 20260506173002 | 42 | 246 | 16.0 | 20.0 | 0.00 | 0.00 | 0.00 | 80 | 1010.5 |
| 20260506171549 | 42 | 245 | 17.0 | 22.0 | 0.00 | 0.00 | 0.00 | 79 | 1010.4 |
| 20260506164602 | 43 | 252 | 18.0 | 21.0 | 0.00 | 0.00 | 0.00 | 79 | 1010.3 |
| 20260506163103 | 43 | 253 | 19.0 | 24.0 | 0.00 | 0.00 | 0.00 | 80 | 1010.1 |
| 20260506161612 | 43 | 251 | 20.0 | 23.0 | 0.00 | 0.00 | 0.00 | 80 | 1010.1 |
| 20260506160111 | 43 | 249 | 22.0 | 26.0 | 0.00 | 0.00 | 0.00 | 80 | 1010.0 |
| 20260506154511 | 43 | 255 | 18.0 | 21.0 | 0.00 | 0.00 | 0.00 | 80 | 1009.9 |
| 20260506153002 | 43 | 253 | 21.0 | 26.0 | 0.00 | 0.00 | 0.00 | 79 | 1009.9 |
| 20260506151502 | 43 | 262 | 22.0 | 27.0 | 0.00 | 0.00 | 0.00 | 79 | 1009.8 |
| 20260506150002 | 43 | 259 | 20.0 | 24.0 | 0.00 | 0.00 | 0.00 | 79 | 1009.8 |
| 20260506144613 | 43 | 259 | 17.0 | 23.0 | 0.00 | 0.00 | 0.00 | 80 | 1009.8 |
| 20260506143012 | 44 | 261 | 19.0 | 23.0 | 0.00 | 0.00 | 0.00 | 78 | 1009.8 |
| 20260506141503 | 44 | 262 | 18.0 | 23.0 | 0.00 | 0.00 | 0.00 | 77 | 1009.8 |
| 20260506140004 | 44 | 259 | 21.0 | 24.0 | 0.00 | 0.00 | 0.00 | 76 | 1009.7 |
| 20260506134602 | 44 | 258 | 19.0 | 23.0 | 0.00 | 0.00 | 0.00 | 77 | 1009.7 |
| 20260506133012 | 44 | 260 | 17.0 | 21.0 | 0.00 | 0.00 | 0.00 | 77 | 1009.6 |
| 20260506131604 | 44 | 256 | 17.0 | 24.0 | 0.00 | 0.00 | 0.00 | 77 | 1009.4 |
| 20260506130140 | 43 | 259 | 19.0 | 24.0 | 0.00 | 0.00 | 0.00 | 76 | 1009.3 |
| 20260506124534 | 43 | 259 | 19.0 | 23.0 | 0.00 | 0.00 | 0.00 | 78 | 1009.3 |
| 20260506123015 | 42 | 258 | 20.0 | 23.0 | 0.00 | 0.00 | 0.00 | 79 | 1009.2 |
| 20260506121602 | 42 | 256 | 20.0 | 23.0 | 0.00 | 0.00 | 0.00 | 80 | 1009.1 |
| 20260506120022 | 42 | 255 | 18.0 | 24.0 | 0.00 | 0.00 | 0.00 | 79 | 1009.0 |
| 20260506114502 | 42 | 260 | 20.0 | 24.0 | 0.00 | 0.00 | 0.00 | 80 | 1008.9 |
| 20260506113102 | 42 | 260 | 19.0 | 25.0 | 0.00 | 0.00 | 0.00 | 79 | 1008.8 |
| 20260506111601 | 42 | 255 | 20.0 | 24.0 | 0.00 | 0.00 | 0.00 | 78 | 1008.5 |
| 20260506110013 | 42 | 258 | 21.0 | 24.0 | 0.00 | 0.00 | 0.00 | 77 | 1008.3 |
| 20260506104522 | 42 | 263 | 18.0 | 24.0 | 0.00 | 0.00 | 0.00 | 78 | 1008.2 |
| 20260506103002 | 42 | 260 | 20.0 | 24.0 | 0.00 | 0.00 | 0.00 | 78 | 1008.1 |
| 20260506101502 | 42 | 265 | 21.0 | 26.0 | 0.00 | 0.00 | 0.00 | 77 | 1007.9 |
| 20260506100110 | 42 | 260 | 21.0 | 25.0 | 0.00 | 0.00 | 0.00 | 78 | 1007.7 |
| 20260506094511 | 42 | 253 | 23.0 | 26.0 | 0.00 | 0.00 | 0.00 | 77 | 1007.5 |
| 20260506093037 | 42 | 254 | 21.0 | 24.0 | 0.00 | 0.00 | 0.00 | 77 | 1007.2 |
| 20260506091503 | 42 | 262 | 22.0 | 27.0 | 0.00 | 0.00 | 0.00 | 75 | 1007.1 |
| 20260506090103 | 42 | 264 | 21.0 | 26.0 | 0.00 | 0.00 | 0.00 | 77 | 1007.0 |
| 20260506084602 | 41 | 262 | 19.0 | 26.0 | 0.00 | 0.00 | 0.00 | 80 | 1006.8 |
| 20260506083101 | 41 | 266 | 21.0 | 26.0 | 0.00 | 0.00 | 0.00 | 79 | 1006.7 |
| 20260506081609 | 40 | 264 | 21.0 | 26.0 | 0.00 | 0.00 | 0.00 | 80 | 1006.5 |